QPF
0.01 0.02 0.03 0.04 0.02 0.02 0.02 0.02 0.02 0.02 0.03 0.03 0.03 0.03 0.04 0.02 0.03 0.02 0.01 0.02 0.03 0.03 0.03 0.04 0.02 0.02 0.03 0.03 0.03 0.02 0.01 0.01 0.02 0.03 0.02 0.01 0.02 0.01 0.01 0.01 0.00 0.01 0.01
0.02 0.02 0.03 0.04 0.03 0.02 0.02 0.02 0.03 0.03 0.03 0.03 0.03 0.02 0.03 0.04 0.04 0.03 0.02 0.03 0.04 0.04 0.04 0.05 0.04 0.02 0.03 0.03 0.03 0.03 0.03 0.03 0.03 0.03 0.02 0.01 0.02 0.01 0.01 0.01 0.01 0.00 0.00
0.02 0.03 0.05 0.05 0.04 0.03 0.03 0.03 0.02 0.02 0.02 0.02 0.02 0.03 0.03 0.03 0.04 0.04 0.03 0.04 0.05 0.05 0.04 0.05 0.06 0.04 0.03 0.03 0.03 0.04 0.04 0.04 0.04 0.03 0.02 0.01 0.01 0.01 0.01 0.01 0.02 0.01 0.00
0.04 0.04 0.04 0.04 0.04 0.05 0.05 0.03 0.02 0.03 0.04 0.04 0.05 0.04 0.03 0.04 0.04 0.04 0.04 0.04 0.04 0.04 0.06 0.05 0.05 0.05 0.04 0.05 0.06 0.05 0.05 0.04 0.03 0.03 0.02 0.02 0.01 0.01 0.01 0.01 0.02 0.02 0.01
0.07 0.06 0.05 0.06 0.06 0.07 0.07 0.04 0.05 0.05 0.05 0.06 0.05 0.06 0.05 0.03 0.04 0.03 0.03 0.02 0.04 0.04 0.07 0.06 0.03 0.03 0.03 0.05 0.07 0.06 0.05 0.04 0.03 0.03 0.03 0.02 0.02 0.02 0.02 0.01 0.02 0.01 0.01
0.05 0.06 0.07 0.09 0.08 0.08 0.09 0.08 0.10 0.08 0.06 0.08 0.04 0.05 0.05 0.03 0.02 0.02 0.03 0.03 0.05 0.03 0.04 0.05 0.06 0.03 0.02 0.02 0.03 0.04 0.05 0.05 0.05 0.03 0.03 0.03 0.02 0.02 0.02 0.02 0.01 0.01 0.01
0.08 0.10 0.10 0.13 0.13 0.10 0.09 0.10 0.11 0.10 0.07 0.09 0.08 0.07 0.05 0.02 0.02 0.02 0.02 0.03 0.02 0.02 0.03 0.05 0.06 0.06 0.04 0.02 0.01 0.02 0.04 0.05 0.06 0.05 0.04 0.03 0.02 0.02 0.02 0.02 0.02 0.01 0.01
0.10 0.11 0.14 0.15 0.14 0.12 0.10 0.10 0.11 0.11 0.09 0.10 0.10 0.09 0.05 0.03 0.02 0.00 0.01 0.02 0.02 0.04 0.03 0.03 0.06 0.06 0.05 0.05 0.03 0.01 0.03 0.04 0.06 0.08 0.06 0.04 0.02 0.02 0.02 0.02 0.01 0.01 0.01
0.13 0.12 0.14 0.15 0.14 0.12 0.12 0.11 0.11 0.11 0.12 0.11 0.11 0.11 0.06 0.04 0.03 0.01 0.00 0.01 0.03 0.05 0.04 0.05 0.04 0.04 0.04 0.04 0.05 0.03 0.02 0.03 0.05 0.07 0.09 0.07 0.04 0.02 0.02 0.02 0.01 0.01 0.01
0.12 0.12 0.12 0.12 0.11 0.10 0.12 0.10 0.10 0.11 0.13 0.11 0.11 0.11 0.08 0.06 0.06 0.05 0.03 0.01 0.02 0.04 0.04 0.03 0.03 0.04 0.04 0.04 0.05 0.03 0.02 0.02 0.03 0.05 0.07 0.07 0.05 0.05 0.04 0.04 0.04 0.04 0.03
0.11 0.09 0.10 0.11 0.11 0.09 0.09 0.09 0.11 0.11 0.10 0.12 0.12 0.11 0.11 0.09 0.06 0.06 0.05 0.04 0.03 0.02 0.01 0.02 0.03 0.03 0.04 0.04 0.04 0.03 0.03 0.02 0.01 0.02 0.04 0.05 0.06 0.06 0.05 0.05 0.05 0.06 0.05
0.12 0.11 0.09 0.11 0.11 0.09 0.09 0.10 0.11 0.11 0.10 0.12 0.12 0.08 0.09 0.08 0.06 0.06 0.05 0.06 0.06 0.03 0.01 0.02 0.02 0.02 0.02 0.01 0.02 0.02 0.03 0.02 0.02 0.03 0.02 0.03 0.04 0.05 0.06 0.07 0.07 0.06 0.07
0.11 0.11 0.13 0.16 0.12 0.08 0.09 0.12 0.12 0.10 0.09 0.10 0.09 0.09 0.09 0.07 0.07 0.07 0.08 0.08 0.08 0.05 0.04 0.02 0.02 0.02 0.01 0.01 0.03 0.03 0.03 0.03 0.03 0.03 0.03 0.03 0.03 0.03 0.05 0.05 0.05 0.05 0.05
0.11 0.10 0.13 0.18 0.19 0.15 0.13 0.13 0.12 0.11 0.10 0.09 0.09 0.11 0.11 0.08 0.07 0.07 0.09 0.10 0.10 0.08 0.05 0.04 0.03 0.02 0.02 0.02 0.02 0.02 0.01 0.02 0.02 0.03 0.03 0.04 0.04 0.04 0.03 0.03 0.03 0.03 0.03
0.11 0.09 0.09 0.13 0.18 0.21 0.18 0.15 0.13 0.11 0.11 0.10 0.09 0.10 0.11 0.09 0.08 0.08 0.09 0.10 0.12 0.11 0.08 0.07 0.06 0.04 0.04 0.03 0.04 0.02 0.02 0.03 0.03 0.03 0.04 0.04 0.04 0.03 0.03 0.03 0.04 0.05 0.04
0.12 0.10 0.09 0.09 0.11 0.15 0.15 0.15 0.14 0.12 0.12 0.12 0.12 0.13 0.12 0.10 0.11 0.09 0.09 0.10 0.12 0.13 0.11 0.10 0.11 0.08 0.06 0.04 0.04 0.04 0.05 0.06 0.04 0.04 0.04 0.03 0.03 0.03 0.03 0.03 0.03 0.04 0.03
0.11 0.11 0.11 0.10 0.10 0.11 0.14 0.15 0.14 0.14 0.14 0.14 0.14 0.14 0.15 0.17 0.18 0.17 0.16 0.14 0.13 0.13 0.13 0.11 0.10 0.07 0.07 0.06 0.05 0.04 0.05 0.06 0.05 0.05 0.05 0.04 0.04 0.04 0.04 0.04 0.04 0.03 0.03
0.09 0.10 0.12 0.10 0.09 0.10 0.14 0.15 0.14 0.11 0.10 0.12 0.13 0.15 0.18 0.20 0.19 0.17 0.15 0.13 0.13 0.14 0.12 0.11 0.10 0.08 0.08 0.07 0.06 0.06 0.05 0.06 0.05 0.06 0.06 0.05 0.05 0.05 0.05 0.05 0.05 0.04 0.03
0.08 0.11 0.12 0.10 0.10 0.10 0.13 0.14 0.14 0.13 0.12 0.15 0.18 0.20 0.21 0.22 0.20 0.17 0.14 0.14 0.14 0.15 0.14 0.12 0.11 0.11 0.09 0.07 0.06 0.06 0.06 0.07 0.05 0.04 0.04 0.04 0.04 0.05 0.05 0.04 0.04 0.04 0.04
0.06 0.06 0.08 0.10 0.11 0.11 0.12 0.12 0.13 0.15 0.16 0.16 0.16 0.16 0.15 0.14 0.14 0.13 0.11 0.12 0.13 0.14 0.13 0.12 0.12 0.12 0.11 0.10 0.10 0.10 0.09 0.09 0.08 0.05 0.06 0.06 0.06 0.07 0.06 0.06 0.04 0.04 0.04
0.06 0.06 0.07 0.07 0.07 0.07 0.08 0.09 0.11 0.13 0.14 0.15 0.14 0.12 0.11 0.11 0.11 0.11 0.11 0.12 0.13 0.14 0.15 0.16 0.15 0.15 0.14 0.15 0.15 0.13 0.13 0.13 0.13 0.12 0.13 0.14 0.14 0.13 0.11 0.08 0.07 0.06 0.06
0.05 0.06 0.06 0.06 0.06 0.05 0.06 0.07 0.08 0.10 0.10 0.12 0.11 0.09 0.08 0.09 0.09 0.10 0.10 0.09 0.10 0.11 0.14 0.18 0.20 0.19 0.18 0.18 0.18 0.17 0.16 0.15 0.16 0.16 0.18 0.21 0.19 0.18 0.13 0.09 0.08 0.07 0.06
0.06 0.07 0.08 0.06 0.05 0.04 0.04 0.05 0.06 0.06 0.08 0.09 0.10 0.09 0.08 0.08 0.09 0.08 0.08 0.08 0.09 0.12 0.15 0.17 0.17 0.16 0.17 0.17 0.18 0.19 0.20 0.20 0.20 0.20 0.19 0.21 0.19 0.16 0.15 0.13 0.09 0.06 0.06
0.08 0.09 0.09 0.11 0.11 0.10 0.11 0.09 0.11 0.12 0.12 0.11 0.12 0.13 0.13 0.12 0.12 0.11 0.10 0.10 0.12 0.13 0.14 0.12 0.11 0.12 0.15 0.16 0.17 0.19 0.22 0.23 0.23 0.22 0.19 0.18 0.15 0.12 0.11 0.12 0.09 0.06 0.05
0.07 0.06 0.07 0.06 0.08 0.10 0.13 0.12 0.11 0.11 0.12 0.12 0.12 0.12 0.12 0.11 0.11 0.11 0.09 0.10 0.12 0.12 0.12 0.14 0.16 0.18 0.19 0.19 0.20 0.23 0.25 0.23 0.22 0.20 0.14 0.11 0.10 0.08 0.06 0.06 0.05 0.05 0.04
0.03 0.03 0.04 0.04 0.05 0.06 0.07 0.05 0.04 0.03 0.04 0.05 0.06 0.07 0.07 0.07 0.07 0.07 0.07 0.08 0.10 0.13 0.16 0.19 0.21 0.21 0.18 0.16 0.14 0.11 0.11 0.11 0.11 0.09 0.07 0.06 0.06 0.05 0.05 0.04 0.05 0.06 0.06
MSLP
1018.04 1018.29 1018.45 1018.53 1018.54 1018.54 1018.55 1018.59 1018.66 1018.75 1018.81 1018.86 1018.87 1018.86 1018.87 1018.93 1019.08 1019.35 1019.72 1020.16 1020.63 1021.08 1021.45 1021.71 1021.86 1021.92 1021.93 1021.92 1021.93 1021.98 1022.09 1022.24 1022.40 1022.55 1022.67 1022.75 1022.81 1022.85 1022.89 1022.94 1023.01 1023.10 1023.19
1018.07 1018.33 1018.49 1018.56 1018.57 1018.55 1018.55 1018.57 1018.64 1018.73 1018.83 1018.91 1018.96 1018.99 1019.03 1019.09 1019.22 1019.43 1019.73 1020.10 1020.50 1020.90 1021.26 1021.53 1021.73 1021.84 1021.90 1021.94 1021.99 1022.07 1022.17 1022.31 1022.46 1022.60 1022.72 1022.82 1022.89 1022.96 1023.01 1023.08 1023.15 1023.22 1023.29
1018.10 1018.36 1018.53 1018.60 1018.61 1018.60 1018.59 1018.62 1018.69 1018.80 1018.93 1019.04 1019.13 1019.19 1019.23 1019.27 1019.34 1019.48 1019.69 1019.96 1020.28 1020.62 1020.94 1021.23 1021.46 1021.63 1021.76 1021.87 1021.96 1022.07 1022.19 1022.33 1022.47 1022.61 1022.73 1022.83 1022.92 1023.00 1023.07 1023.14 1023.21 1023.28 1023.33
1018.11 1018.37 1018.55 1018.63 1018.66 1018.66 1018.66 1018.71 1018.80 1018.93 1019.08 1019.22 1019.33 1019.40 1019.42 1019.43 1019.43 1019.48 1019.57 1019.73 1019.96 1020.22 1020.51 1020.79 1021.05 1021.28 1021.48 1021.65 1021.81 1021.96 1022.11 1022.25 1022.40 1022.53 1022.65 1022.76 1022.86 1022.94 1023.03 1023.10 1023.17 1023.23 1023.28
1018.05 1018.32 1018.51 1018.62 1018.67 1018.70 1018.73 1018.80 1018.91 1019.06 1019.24 1019.39 1019.51 1019.57 1019.57 1019.53 1019.46 1019.40 1019.39 1019.44 1019.55 1019.73 1019.96 1020.22 1020.50 1020.77 1021.03 1021.27 1021.49 1021.69 1021.87 1022.04 1022.19 1022.33 1022.45 1022.56 1022.67 1022.76 1022.85 1022.93 1023.01 1023.06 1023.11
1017.92 1018.19 1018.40 1018.54 1018.63 1018.69 1018.76 1018.86 1018.99 1019.16 1019.35 1019.51 1019.62 1019.67 1019.65 1019.55 1019.42 1019.27 1019.15 1019.08 1019.09 1019.18 1019.34 1019.57 1019.84 1020.13 1020.43 1020.72 1020.99 1021.24 1021.47 1021.67 1021.84 1021.99 1022.12 1022.24 1022.35 1022.45 1022.55 1022.64 1022.72 1022.78 1022.83
1017.72 1017.99 1018.21 1018.38 1018.50 1018.61 1018.71 1018.84 1019.00 1019.18 1019.37 1019.53 1019.64 1019.68 1019.63 1019.50 1019.31 1019.09 1018.89 1018.72 1018.63 1018.63 1018.71 1018.88 1019.11 1019.40 1019.71 1020.03 1020.34 1020.64 1020.90 1021.14 1021.34 1021.52 1021.67 1021.80 1021.92 1022.03 1022.13 1022.23 1022.32 1022.39 1022.45
1017.46 1017.71 1017.94 1018.13 1018.29 1018.43 1018.57 1018.73 1018.91 1019.10 1019.29 1019.45 1019.55 1019.58 1019.52 1019.38 1019.16 1018.90 1018.64 1018.40 1018.23 1018.13 1018.12 1018.21 1018.39 1018.63 1018.92 1019.25 1019.58 1019.91 1020.21 1020.49 1020.73 1020.93 1021.11 1021.26 1021.39 1021.52 1021.63 1021.73 1021.82 1021.91 1021.98
1017.15 1017.37 1017.59 1017.79 1017.97 1018.15 1018.32 1018.50 1018.69 1018.89 1019.08 1019.24 1019.35 1019.39 1019.34 1019.21 1019.00 1018.74 1018.45 1018.17 1017.92 1017.74 1017.64 1017.63 1017.72 1017.89 1018.14 1018.44 1018.77 1019.11 1019.44 1019.75 1020.03 1020.27 1020.48 1020.65 1020.80 1020.93 1021.04 1021.15 1021.25 1021.34 1021.42
1016.80 1016.98 1017.17 1017.37 1017.57 1017.76 1017.96 1018.16 1018.36 1018.56 1018.74 1018.91 1019.03 1019.10 1019.09 1019.00 1018.84 1018.60 1018.33 1018.03 1017.74 1017.49 1017.30 1017.19 1017.17 1017.25 1017.42 1017.67 1017.97 1018.31 1018.65 1018.99 1019.30 1019.58 1019.81 1020.00 1020.16 1020.28 1020.40 1020.50 1020.59 1020.68 1020.77
1016.41 1016.54 1016.70 1016.88 1017.08 1017.28 1017.49 1017.69 1017.89 1018.09 1018.28 1018.45 1018.60 1018.70 1018.75 1018.74 1018.64 1018.48 1018.25 1017.96 1017.66 1017.36 1017.09 1016.88 1016.75 1016.73 1016.81 1016.98 1017.24 1017.56 1017.91 1018.26 1018.59 1018.89 1019.13 1019.33 1019.49 1019.61 1019.70 1019.79 1019.87 1019.95 1020.04
1016.00 1016.06 1016.17 1016.33 1016.51 1016.71 1016.91 1017.11 1017.31 1017.50 1017.69 1017.87 1018.04 1018.19 1018.31 1018.38 1018.38 1018.31 1018.15 1017.91 1017.62 1017.29 1016.97 1016.67 1016.45 1016.32 1016.31 1016.41 1016.62 1016.90 1017.24 1017.59 1017.93 1018.24 1018.49 1018.68 1018.82 1018.92 1018.99 1019.05 1019.10 1019.17 1019.25
1015.55 1015.56 1015.62 1015.74 1015.90 1016.08 1016.27 1016.45 1016.63 1016.80 1016.97 1017.16 1017.35 1017.55 1017.74 1017.89 1018.00 1018.02 1017.95 1017.79 1017.53 1017.21 1016.85 1016.51 1016.21 1016.01 1015.91 1015.95 1016.11 1016.36 1016.68 1017.03 1017.37 1017.67 1017.91 1018.09 1018.20 1018.27 1018.30 1018.32 1018.35 1018.40 1018.47
1015.11 1015.06 1015.08 1015.16 1015.29 1015.44 1015.60 1015.75 1015.89 1016.03 1016.18 1016.35 1016.54 1016.77 1017.01 1017.24 1017.43 1017.56 1017.58 1017.50 1017.30 1017.01 1016.66 1016.30 1015.97 1015.72 1015.58 1015.58 1015.70 1015.94 1016.25 1016.60 1016.93 1017.23 1017.46 1017.61 1017.69 1017.72 1017.72 1017.71 1017.71 1017.74 1017.80
1014.73 1014.64 1014.62 1014.66 1014.75 1014.87 1014.98 1015.09 1015.18 1015.26 1015.36 1015.49 1015.66 1015.88 1016.14 1016.42 1016.68 1016.88 1016.99 1016.99 1016.87 1016.63 1016.32 1015.98 1015.66 1015.41 1015.27 1015.27 1015.40 1015.64 1015.96 1016.32 1016.67 1016.96 1017.18 1017.32 1017.37 1017.37 1017.33 1017.29 1017.27 1017.28 1017.34
1014.47 1014.35 1014.31 1014.32 1014.37 1014.44 1014.50 1014.54 1014.56 1014.57 1014.59 1014.65 1014.77 1014.95 1015.19 1015.47 1015.76 1016.01 1016.19 1016.25 1016.20 1016.04 1015.79 1015.51 1015.24 1015.04 1014.95 1014.99 1015.17 1015.46 1015.82 1016.21 1016.59 1016.90 1017.13 1017.26 1017.30 1017.28 1017.22 1017.16 1017.12 1017.13 1017.19
1014.40 1014.28 1014.22 1014.21 1014.22 1014.24 1014.24 1014.21 1014.15 1014.06 1013.99 1013.95 1013.97 1014.08 1014.26 1014.50 1014.77 1015.03 1015.23 1015.34 1015.35 1015.26 1015.09 1014.89 1014.71 1014.61 1014.61 1014.74 1015.01 1015.38 1015.82 1016.28 1016.71 1017.06 1017.32 1017.47 1017.52 1017.50 1017.44 1017.37 1017.34 1017.35 1017.42
1014.58 1014.47 1014.40 1014.36 1014.35 1014.32 1014.25 1014.15 1013.99 1013.81 1013.63 1013.47 1013.38 1013.38 1013.46 1013.63 1013.84 1014.06 1014.25 1014.37 1014.42 1014.39 1014.30 1014.20 1014.13 1014.14 1014.27 1014.52 1014.90 1015.39 1015.93 1016.48 1016.99 1017.41 1017.72 1017.91 1017.99 1018.00 1017.96 1017.91 1017.89 1017.91 1017.99
1014.99 1014.90 1014.83 1014.79 1014.74 1014.66 1014.54 1014.36 1014.13 1013.85 1013.56 1013.29 1013.08 1012.96 1012.93 1012.98 1013.10 1013.25 1013.40 1013.50 1013.56 1013.57 1013.55 1013.54 1013.58 1013.71 1013.96 1014.35 1014.87 1015.48 1016.13 1016.79 1017.39 1017.89 1018.27 1018.52 1018.65 1018.69 1018.69 1018.67 1018.67 1018.72 1018.81
1015.59 1015.52 1015.46 1015.40 1015.33 1015.23 1015.06 1014.82 1014.52 1014.16 1013.79 1013.42 1013.11 1012.87 1012.73 1012.67 1012.68 1012.74 1012.82 1012.88 1012.92 1012.95 1012.97 1013.03 1013.15 1013.39 1013.76 1014.27 1014.90 1015.62 1016.39 1017.14 1017.83 1018.41 1018.86 1019.17 1019.36 1019.45 1019.49 1019.51 1019.55 1019.61 1019.72
1016.27 1016.23 1016.18 1016.12 1016.03 1015.90 1015.71 1015.44 1015.10 1014.70 1014.27 1013.84 1013.45 1013.13 1012.89 1012.74 1012.65 1012.62 1012.62 1012.62 1012.63 1012.64 1012.67 1012.77 1012.95 1013.26 1013.71 1014.30 1015.01 1015.81 1016.65 1017.47 1018.23 1018.87 1019.37 1019.74 1019.98 1020.13 1020.21 1020.27 1020.34 1020.43 1020.55
1016.95 1016.92 1016.88 1016.81 1016.72 1016.59 1016.38 1016.11 1015.76 1015.35 1014.91 1014.47 1014.06 1013.69 1013.40 1013.18 1013.02 1012.92 1012.84 1012.78 1012.74 1012.72 1012.74 1012.83 1013.03 1013.37 1013.84 1014.46 1015.20 1016.03 1016.90 1017.75 1018.52 1019.19 1019.73 1020.13 1020.41 1020.59 1020.72 1020.81 1020.91 1021.02 1021.15
1017.53 1017.51 1017.46 1017.40 1017.31 1017.18 1016.99 1016.73 1016.42 1016.04 1015.64 1015.22 1014.83 1014.48 1014.17 1013.93 1013.74 1013.58 1013.46 1013.35 1013.26 1013.19 1013.18 1013.25 1013.42 1013.73 1014.19 1014.78 1015.49 1016.29 1017.12 1017.94 1018.69 1019.34 1019.87 1020.28 1020.57 1020.78 1020.93 1021.05 1021.16 1021.29 1021.44
1017.97 1017.94 1017.90 1017.84 1017.75 1017.63 1017.47 1017.26 1016.99 1016.68 1016.35 1016.00 1015.67 1015.37 1015.10 1014.88 1014.69 1014.52 1014.37 1014.23 1014.11 1014.01 1013.95 1013.97 1014.10 1014.34 1014.73 1015.24 1015.87 1016.58 1017.32 1018.05 1018.73 1019.33 1019.81 1020.20 1020.48 1020.68 1020.84 1020.98 1021.11 1021.26 1021.41
1018.28 1018.24 1018.20 1018.14 1018.07 1017.97 1017.84 1017.68 1017.48 1017.25 1017.00 1016.74 1016.50 1016.27 1016.07 1015.89 1015.73 1015.59 1015.44 1015.30 1015.16 1015.04 1014.95 1014.92 1014.97 1015.14 1015.42 1015.83 1016.33 1016.91 1017.52 1018.13 1018.70 1019.21 1019.62 1019.95 1020.21 1020.40 1020.56 1020.70 1020.84 1021.00 1021.16
1018.52 1018.49 1018.44 1018.39 1018.33 1018.26 1018.17 1018.05 1017.92 1017.76 1017.59 1017.41 1017.25 1017.10 1016.97 1016.85 1016.74 1016.63 1016.52 1016.40 1016.26 1016.13 1016.02 1015.95 1015.95 1016.03 1016.21 1016.49 1016.86 1017.29 1017.75 1018.22 1018.67 1019.07 1019.40 1019.67 1019.89 1020.06 1020.20 1020.35 1020.50 1020.66 1020.83
Thickness
5754 5753 5751 5750 5751 5750 5749 5747 5748 5747 5747 5747 5748 5747 5747 5748 5747 5746 5743 5737 5734 5732 5730 5728 5726 5724 5723 5721 5720 5718 5717 5716 5715 5713 5712 5711 5709 5708 5707 5706 5705 5705 5704
5753 5752 5750 5749 5750 5749 5750 5748 5748 5747 5748 5748 5748 5748 5747 5748 5745 5744 5745 5740 5736 5733 5731 5729 5728 5726 5724 5722 5721 5719 5718 5717 5715 5714 5712 5711 5710 5708 5707 5706 5706 5705 5704
5751 5751 5751 5749 5750 5749 5747 5747 5747 5748 5748 5749 5748 5748 5748 5747 5747 5745 5745 5744 5741 5736 5734 5731 5729 5728 5726 5724 5722 5721 5719 5718 5716 5715 5713 5712 5710 5709 5708 5707 5706 5705 5704
5750 5749 5750 5751 5749 5749 5749 5749 5749 5749 5749 5749 5749 5749 5749 5748 5747 5746 5746 5745 5744 5743 5738 5734 5732 5730 5728 5726 5725 5723 5721 5719 5718 5716 5715 5713 5711 5710 5709 5707 5706 5706 5705
5750 5749 5750 5750 5749 5749 5749 5750 5750 5750 5748 5748 5750 5749 5750 5750 5749 5749 5749 5748 5747 5745 5743 5739 5735 5733 5731 5729 5728 5726 5724 5722 5720 5718 5716 5715 5713 5712 5710 5709 5708 5707 5706
5750 5750 5750 5749 5749 5749 5749 5748 5747 5747 5747 5748 5751 5752 5751 5753 5752 5752 5751 5751 5750 5748 5747 5745 5740 5738 5735 5733 5731 5728 5727 5724 5722 5720 5718 5717 5715 5714 5712 5711 5709 5708 5707
5751 5750 5751 5749 5748 5748 5748 5748 5746 5746 5746 5748 5746 5747 5751 5754 5754 5754 5753 5753 5753 5751 5749 5747 5744 5743 5741 5736 5734 5732 5729 5727 5725 5723 5721 5719 5717 5716 5714 5713 5711 5710 5708
5751 5751 5749 5749 5748 5747 5747 5747 5745 5746 5747 5748 5745 5743 5743 5749 5752 5758 5757 5754 5754 5753 5752 5750 5747 5744 5743 5742 5739 5735 5732 5729 5727 5725 5723 5721 5719 5718 5716 5714 5713 5711 5710
5752 5751 5751 5750 5749 5748 5747 5746 5746 5744 5744 5747 5748 5744 5741 5742 5749 5756 5756 5756 5755 5754 5753 5752 5750 5747 5744 5743 5742 5737 5734 5732 5729 5727 5725 5723 5722 5720 5718 5716 5714 5712 5711
5753 5752 5751 5750 5749 5749 5748 5748 5749 5747 5744 5744 5746 5747 5747 5748 5742 5744 5752 5756 5755 5752 5752 5753 5752 5749 5746 5744 5741 5738 5735 5733 5730 5728 5726 5724 5723 5721 5719 5717 5715 5713 5711
5754 5753 5752 5751 5750 5750 5749 5749 5748 5747 5747 5745 5745 5746 5745 5745 5744 5740 5741 5747 5751 5753 5753 5752 5750 5749 5747 5744 5741 5739 5736 5733 5731 5729 5726 5725 5723 5721 5719 5718 5716 5714 5712
5754 5753 5753 5751 5751 5750 5750 5748 5748 5747 5746 5746 5746 5745 5743 5742 5742 5743 5740 5741 5743 5749 5751 5751 5749 5747 5746 5744 5741 5738 5735 5733 5730 5728 5726 5725 5723 5722 5720 5718 5716 5714 5712
5754 5754 5754 5752 5751 5751 5749 5748 5747 5747 5746 5744 5744 5744 5745 5745 5746 5744 5741 5740 5740 5744 5746 5747 5746 5745 5744 5742 5739 5736 5733 5731 5729 5727 5725 5724 5722 5720 5718 5716 5715 5713 5711
5756 5755 5753 5752 5751 5750 5749 5748 5747 5746 5745 5744 5744 5743 5742 5744 5745 5744 5741 5738 5734 5737 5739 5740 5743 5741 5740 5738 5736 5732 5731 5729 5727 5725 5723 5721 5719 5718 5716 5714 5712 5710 5709
5756 5755 5753 5751 5750 5748 5747 5747 5746 5745 5745 5744 5743 5742 5741 5742 5742 5742 5741 5738 5731 5727 5729 5734 5735 5737 5735 5733 5731 5729 5727 5726 5724 5722 5720 5718 5716 5714 5712 5710 5708 5706 5705
5754 5753 5752 5750 5748 5747 5746 5744 5743 5743 5742 5741 5740 5739 5738 5739 5739 5738 5737 5735 5732 5727 5724 5730 5729 5732 5730 5730 5726 5724 5723 5721 5719 5717 5715 5713 5711 5709 5707 5705 5703 5701 5700
5751 5750 5750 5748 5746 5745 5743 5742 5741 5740 5739 5738 5737 5736 5734 5734 5734 5733 5733 5731 5729 5726 5721 5724 5725 5725 5723 5721 5720 5719 5718 5716 5714 5712 5710 5707 5705 5703 5701 5699 5697 5695 5693
5748 5747 5747 5745 5743 5742 5741 5739 5737 5736 5734 5733 5732 5731 5730 5730 5728 5728 5726 5725 5724 5722 5719 5716 5717 5717 5715 5714 5713 5711 5711 5711 5709 5706 5704 5701 5699 5696 5694 5691 5689 5687 5685
5744 5744 5742 5741 5739 5738 5737 5735 5733 5732 5731 5729 5728 5726 5725 5723 5722 5722 5720 5719 5718 5717 5715 5712 5710 5710 5710 5708 5706 5704 5704 5701 5701 5699 5696 5694 5691 5689 5686 5683 5681 5678 5676
5740 5739 5737 5736 5734 5733 5732 5730 5728 5727 5726 5724 5722 5721 5719 5718 5717 5716 5715 5713 5712 5710 5707 5705 5703 5702 5701 5700 5698 5695 5694 5693 5692 5691 5688 5685 5682 5679 5676 5673 5671 5668 5666
5735 5733 5732 5730 5729 5727 5725 5724 5723 5722 5720 5717 5715 5714 5712 5710 5708 5708 5708 5706 5705 5703 5701 5698 5695 5693 5691 5689 5688 5688 5685 5684 5682 5679 5677 5676 5673 5671 5667 5662 5659 5656 5655
5729 5727 5725 5723 5721 5719 5716 5715 5716 5715 5713 5710 5708 5706 5705 5702 5700 5698 5697 5695 5694 5693 5691 5690 5687 5683 5680 5679 5678 5677 5675 5673 5669 5667 5664 5663 5661 5659 5656 5652 5647 5644 5642
5722 5720 5717 5715 5712 5708 5707 5706 5706 5706 5705 5702 5700 5698 5697 5695 5694 5692 5688 5686 5683 5681 5680 5679 5676 5673 5670 5668 5667 5666 5663 5660 5655 5653 5652 5650 5648 5645 5643 5638 5635 5632 5629
5716 5712 5709 5707 5704 5700 5698 5698 5698 5697 5695 5693 5690 5688 5687 5685 5684 5683 5681 5678 5674 5671 5670 5668 5665 5662 5659 5657 5656 5655 5652 5649 5646 5642 5639 5637 5635 5632 5630 5626 5621 5619 5617
5708 5706 5703 5700 5697 5693 5690 5690 5690 5689 5686 5682 5679 5677 5677 5675 5672 5672 5672 5668 5664 5659 5655 5653 5650 5647 5645 5644 5643 5644 5641 5640 5636 5632 5627 5625 5623 5621 5618 5615 5610 5607 5605
5701 5699 5695 5692 5689 5685 5681 5682 5683 5683 5678 5674 5670 5666 5662 5661 5660 5661 5661 5657 5653 5649 5647 5644 5641 5638 5636 5633 5631 5629 5629 5627 5624 5620 5615 5613 5612 5611 5608 5605 5602 5599 5595